Time,TemperatureF,DewpointF,PressureIn,WindDirection,WindDirectionDegrees,WindSpeedMPH,WindSpeedGustMPH,Humidity,HourlyPrecipIn,Conditions,Clouds,dailyrainin,SoftwareType,DateUTC
2013-02-20 00:05:00,32.0,30.0,29.82,SSE,156,1.0,3.0,92,0.00,,,0.25,meteohub,2013-02-20 08:05:00,
2013-02-20 00:10:00,31.8,29.8,29.82,SE,139,0.0,1.0,92,0.00,,,0.00,meteohub,2013-02-20 08:10:00,
2013-02-20 00:15:00,31.6,29.7,29.82,SE,139,0.0,1.0,92,0.00,,,0.00,meteohub,2013-02-20 08:15:00,
2013-02-20 00:20:00,31.5,29.5,29.82,SE,138,0.0,1.0,92,0.00,,,0.00,meteohub,2013-02-20 08:20:00,
2013-02-20 00:25:00,31.5,29.7,29.82,SSW,210,0.0,1.0,93,0.00,,,0.00,meteohub,2013-02-20 08:25:00,
2013-02-20 00:30:00,31.3,29.5,29.82,SSW,210,0.0,1.0,93,0.00,,,0.00,meteohub,2013-02-20 08:30:00,
2013-02-20 00:35:00,31.3,29.5,29.82,SSW,210,0.0,1.0,93,0.00,,,0.00,meteohub,2013-02-20 08:35:00,
2013-02-20 00:40:00,31.3,29.5,29.82,SSW,209,0.0,1.0,93,0.00,,,0.00,meteohub,2013-02-20 08:40:00,
2013-02-20 00:45:00,31.3,29.5,29.82,West,262,2.0,2.0,93,0.00,,,0.00,meteohub,2013-02-20 08:45:00,
2013-02-20 00:50:00,31.1,29.3,29.83,WSW,246,0.0,3.0,93,0.00,,,0.00,meteohub,2013-02-20 08:50:00,
2013-02-20 00:55:00,30.9,29.1,29.83,ENE,65,1.0,3.0,93,0.00,,,0.00,meteohub,2013-02-20 08:55:00,
2013-02-20 01:00:00,31.3,29.5,29.83,ENE,65,0.0,3.0,93,0.00,,,0.00,meteohub,2013-02-20 09:00:00,
2013-02-20 01:05:00,31.3,29.5,29.83,ENE,65,0.0,3.0,93,0.00,,,0.00,meteohub,2013-02-20 09:05:00,
2013-02-20 01:11:00,30.9,29.1,29.83,SSE,161,0.0,2.0,93,0.00,,,0.00,meteohub,2013-02-20 09:11:00,
2013-02-20 01:16:00,30.7,28.9,29.83,SSW,205,0.0,1.0,93,0.00,,,0.00,meteohub,2013-02-20 09:16:00,
2013-02-20 01:21:00,30.4,28.6,29.84,SSW,205,0.0,1.0,93,0.00,,,0.00,meteohub,2013-02-20 09:21:00,
2013-02-20 01:26:00,30.4,28.6,29.84,SSW,205,0.0,1.0,93,0.00,,,0.00,meteohub,2013-02-20 09:26:00,
2013-02-20 01:31:00,30.4,28.6,29.84,SSW,205,0.0,0.0,93,0.00,,,0.00,meteohub,2013-02-20 09:31:00,
2013-02-20 01:36:00,30.2,28.4,29.84,SSW,205,0.0,1.0,93,0.00,,,0.00,meteohub,2013-02-20 09:36:00,
2013-02-20 01:41:00,30.4,28.9,29.84,SSW,203,1.0,1.0,94,0.00,,,0.00,meteohub,2013-02-20 09:41:00,
2013-02-20 01:46:00,30.4,28.9,29.84,North,11,0.0,2.0,94,0.00,,,0.00,meteohub,2013-02-20 09:46:00,
2013-02-20 01:51:00,30.4,28.9,29.84,North,5,0.0,2.0,94,0.00,,,0.00,meteohub,2013-02-20 09:51:00,
2013-02-20 01:56:00,30.4,28.9,29.84,North,5,0.0,2.0,94,0.00,,,0.00,meteohub,2013-02-20 09:56:00,
2013-02-20 02:01:00,30.4,28.9,29.84,North,5,0.0,1.0,94,0.00,,,0.00,meteohub,2013-02-20 10:01:00,
2013-02-20 02:06:00,30.0,28.6,29.85,North,5,0.0,1.0,94,0.00,,,0.00,meteohub,2013-02-20 10:06:00,
2013-02-20 02:11:00,30.0,28.6,29.85,North,5,0.0,1.0,94,0.00,,,0.00,meteohub,2013-02-20 10:11:00,
2013-02-20 02:16:00,30.0,28.6,29.85,WSW,257,1.0,1.0,94,0.00,,,0.00,meteohub,2013-02-20 10:16:00,
2013-02-20 02:21:00,29.8,28.4,29.85,SW,236,0.0,1.0,94,0.00,,,0.00,meteohub,2013-02-20 10:21:00,
2013-02-20 02:26:00,29.7,28.2,29.85,SW,234,0.0,2.0,94,0.00,,,0.00,meteohub,2013-02-20 10:26:00,
2013-02-20 02:31:00,29.7,28.2,29.85,SW,234,0.0,1.0,94,0.00,,,0.00,meteohub,2013-02-20 10:31:00,
2013-02-20 02:36:00,29.5,28.0,29.85,SW,234,0.0,1.0,94,0.00,,,0.00,meteohub,2013-02-20 10:36:00,
2013-02-20 02:41:00,29.7,28.2,29.85,WSW,242,0.0,1.0,94,0.00,,,0.00,meteohub,2013-02-20 10:41:00,
2013-02-20 02:46:00,29.7,28.2,29.85,WSW,242,0.0,1.0,94,0.00,,,0.00,meteohub,2013-02-20 10:46:00,
2013-02-20 02:51:00,29.5,28.0,29.86,WSW,242,0.0,1.0,94,0.00,,,0.00,meteohub,2013-02-20 10:51:00,
2013-02-20 02:56:00,29.7,28.2,29.86,NNE,30,0.0,1.0,94,0.00,,,0.00,meteohub,2013-02-20 10:56:00,
2013-02-20 03:01:00,29.7,28.2,29.86,NNE,30,0.0,1.0,94,0.00,,,0.00,meteohub,2013-02-20 11:01:00,
2013-02-20 03:06:00,29.7,28.2,29.87,NNE,29,1.0,1.0,94,0.00,,,0.00,meteohub,2013-02-20 11:06:00,
2013-02-20 03:11:00,29.7,28.2,29.87,NNE,31,0.0,1.0,94,0.00,,,0.00,meteohub,2013-02-20 11:11:00,
2013-02-20 03:16:00,29.7,28.2,29.87,NE,49,0.0,2.0,94,0.00,,,0.00,meteohub,2013-02-20 11:16:00,
2013-02-20 03:22:00,29.7,28.2,29.87,NE,49,0.0,2.0,94,0.00,,,0.00,meteohub,2013-02-20 11:22:00,
2013-02-20 03:27:00,29.5,28.0,29.87,NE,46,1.0,2.0,94,0.00,,,0.00,meteohub,2013-02-20 11:27:00,
2013-02-20 03:32:00,29.7,28.4,29.87,SE,128,0.0,1.0,95,0.00,,,0.00,meteohub,2013-02-20 11:32:00,
2013-02-20 03:37:00,29.7,28.2,29.87,SE,128,0.0,1.0,94,0.00,,,0.00,meteohub,2013-02-20 11:37:00,
2013-02-20 03:42:00,29.5,28.0,29.87,West,277,0.0,1.0,94,0.00,,,0.00,meteohub,2013-02-20 11:42:00,
2013-02-20 03:47:00,29.5,28.0,29.87,West,273,1.0,2.0,94,0.00,,,0.00,meteohub,2013-02-20 11:47:00,
2013-02-20 03:52:00,29.1,27.7,29.87,West,264,0.0,3.0,94,0.00,,,0.00,meteohub,2013-02-20 11:52:00,
2013-02-20 03:57:00,29.1,27.7,29.87,NE,35,0.0,3.0,94,0.00,,,0.00,meteohub,2013-02-20 11:57:00,
2013-02-20 04:02:00,29.1,27.7,29.87,NE,34,0.0,3.0,94,0.00,,,0.00,meteohub,2013-02-20 12:02:00,
2013-02-20 04:07:00,29.1,27.7,29.87,NE,34,0.0,2.0,94,0.00,,,0.00,meteohub,2013-02-20 12:07:00,
2013-02-20 04:12:00,29.1,27.7,29.87,NE,35,0.0,2.0,94,0.00,,,0.00,meteohub,2013-02-20 12:12:00,
2013-02-20 04:17:00,29.3,27.9,29.87,East,79,1.0,1.0,94,0.00,,,0.00,meteohub,2013-02-20 12:17:00,
2013-02-20 04:22:00,29.5,28.2,29.87,East,84,1.0,1.0,95,0.00,,,0.00,meteohub,2013-02-20 12:22:00,
2013-02-20 04:27:00,29.1,27.7,29.87,SW,215,0.0,2.0,94,0.00,,,0.00,meteohub,2013-02-20 12:27:00,
2013-02-20 04:32:00,29.1,27.7,29.87,SW,215,0.0,2.0,94,0.00,,,0.00,meteohub,2013-02-20 12:32:00,
2013-02-20 04:37:00,28.9,27.5,29.88,SW,214,1.0,1.0,94,0.00,,,0.00,meteohub,2013-02-20 12:37:00,
2013-02-20 04:42:00,28.9,27.5,29.88,SW,214,0.0,1.0,94,0.00,,,0.00,meteohub,2013-02-20 12:42:00,
2013-02-20 04:47:00,28.9,27.5,29.88,SW,214,0.0,1.0,94,0.00,,,0.00,meteohub,2013-02-20 12:47:00,
2013-02-20 04:52:00,28.9,27.7,29.89,SW,214,0.0,1.0,95,0.00,,,0.00,meteohub,2013-02-20 12:52:00,
2013-02-20 04:57:00,29.1,27.9,29.89,SW,215,0.0,1.0,95,0.00,,,0.00,meteohub,2013-02-20 12:57:00,
2013-02-20 05:02:00,29.1,27.9,29.89,SW,215,0.0,1.0,95,0.00,,,0.00,meteohub,2013-02-20 13:02:00,
2013-02-20 05:07:00,29.1,27.9,29.89,SW,214,0.0,1.0,95,0.00,,,0.00,meteohub,2013-02-20 13:07:00,
2013-02-20 05:12:00,28.9,27.7,29.89,SW,214,1.0,1.0,95,0.00,,,0.00,meteohub,2013-02-20 13:12:00,
2013-02-20 05:17:00,28.9,27.7,29.89,SE,134,0.0,1.0,95,0.00,,,0.00,meteohub,2013-02-20 13:17:00,
2013-02-20 05:22:00,28.9,27.7,29.90,SW,214,0.0,1.0,95,0.00,,,0.00,meteohub,2013-02-20 13:22:00,
2013-02-20 05:27:00,28.9,27.7,29.90,SSW,213,0.0,1.0,95,0.00,,,0.00,meteohub,2013-02-20 13:27:00,
2013-02-20 05:32:00,28.8,27.3,29.90,SW,215,0.0,1.0,94,0.00,,,0.00,meteohub,2013-02-20 13:32:00,
2013-02-20 05:38:00,28.6,27.1,29.89,SW,215,0.0,1.0,94,0.00,,,0.00,meteohub,2013-02-20 13:38:00,
2013-02-20 05:43:00,28.6,27.3,29.89,SSE,159,1.0,1.0,95,0.00,,,0.00,meteohub,2013-02-20 13:43:00,
2013-02-20 05:48:00,28.8,27.5,29.89,SE,144,0.0,1.0,95,0.00,,,0.00,meteohub,2013-02-20 13:48:00,
2013-02-20 05:53:00,28.8,27.5,29.89,SSW,199,1.0,1.0,95,0.00,,,0.00,meteohub,2013-02-20 13:53:00,
2013-02-20 05:58:00,28.9,27.7,29.89,West,264,1.0,1.0,95,0.00,,,0.00,meteohub,2013-02-20 13:58:00,
2013-02-20 06:03:00,28.8,27.5,29.89,West,264,0.0,2.0,95,0.00,,,0.00,meteohub,2013-02-20 14:03:00,
2013-02-20 06:08:00,28.8,27.5,29.90,ENE,69,0.0,2.0,95,0.00,,,0.00,meteohub,2013-02-20 14:08:00,
2013-02-20 06:13:00,28.8,27.5,29.90,ENE,69,0.0,2.0,95,0.00,,,0.00,meteohub,2013-02-20 14:13:00,
2013-02-20 06:18:00,28.8,27.5,29.90,ENE,71,0.0,2.0,95,0.00,,,0.00,meteohub,2013-02-20 14:18:00,
2013-02-20 06:23:00,28.8,27.5,29.91,ENE,71,0.0,1.0,95,0.00,,,0.00,meteohub,2013-02-20 14:23:00,
2013-02-20 06:28:00,28.6,27.3,29.91,ENE,71,0.0,1.0,95,0.00,,,0.00,meteohub,2013-02-20 14:28:00,
2013-02-20 06:33:00,28.6,27.3,29.91,ENE,71,0.0,1.0,95,0.00,,,0.00,meteohub,2013-02-20 14:33:00,
2013-02-20 06:38:00,28.4,27.1,29.92,ENE,71,1.0,1.0,95,0.00,,,0.00,meteohub,2013-02-20 14:38:00,
2013-02-20 06:43:00,28.4,27.1,29.92,ENE,71,0.0,1.0,95,0.00,,,0.00,meteohub,2013-02-20 14:43:00,
2013-02-20 06:48:00,28.6,27.3,29.92,ENE,71,0.0,1.0,95,0.00,,,0.00,meteohub,2013-02-20 14:48:00,
2013-02-20 06:53:00,28.6,27.3,29.91,ENE,71,0.0,1.0,95,0.00,,,0.00,meteohub,2013-02-20 14:53:00,
2013-02-20 06:58:00,28.6,27.3,29.91,ENE,71,0.0,1.0,95,0.00,,,0.00,meteohub,2013-02-20 14:58:00,
2013-02-20 07:03:00,28.6,27.3,29.91,West,265,1.0,1.0,95,0.00,,,0.00,meteohub,2013-02-20 15:03:00,
2013-02-20 07:08:00,28.6,27.3,29.93,WSW,256,0.0,1.0,95,0.00,,,0.00,meteohub,2013-02-20 15:08:00,
2013-02-20 07:13:00,28.6,27.3,29.93,SSW,205,0.0,1.0,95,0.00,,,0.00,meteohub,2013-02-20 15:13:00,
2013-02-20 07:18:00,28.6,27.3,29.93,SSW,205,0.0,1.0,95,0.00,,,0.00,meteohub,2013-02-20 15:18:00,
2013-02-20 07:23:00,28.9,27.7,29.93,ENE,65,2.0,2.0,95,0.00,,,0.00,meteohub,2013-02-20 15:23:00,
2013-02-20 07:28:00,29.1,27.9,29.93,East,94,1.0,2.0,95,0.00,,,0.00,meteohub,2013-02-20 15:28:00,
2013-02-20 07:33:00,29.7,28.4,29.93,SSE,153,1.0,2.0,95,0.00,,,0.00,meteohub,2013-02-20 15:33:00,
2013-02-20 07:38:00,30.4,29.1,29.94,SSE,160,0.0,2.0,95,0.00,,,0.00,meteohub,2013-02-20 15:38:00,
2013-02-20 07:43:00,30.9,29.7,29.94,South,190,1.0,1.0,95,0.00,,,0.00,meteohub,2013-02-20 15:43:00,
2013-02-20 07:48:00,31.5,30.2,29.94,WSW,237,0.0,1.0,95,0.00,,,0.00,meteohub,2013-02-20 15:48:00,
2013-02-20 07:53:00,32.5,31.3,29.94,SW,236,0.0,1.0,95,0.00,,,0.00,meteohub,2013-02-20 15:53:00,
2013-02-20 07:58:00,34.0,32.7,29.94,SW,236,0.0,1.0,95,0.00,,,0.00,meteohub,2013-02-20 15:58:00,
2013-02-20 08:04:00,34.9,33.1,29.94,SE,130,1.0,1.0,93,0.00,,,0.00,meteohub,2013-02-20 16:04:00,
2013-02-20 08:09:00,35.6,32.7,29.94,SE,130,0.0,1.0,89,0.00,,,0.00,meteohub,2013-02-20 16:09:00,
2013-02-20 08:14:00,36.9,34.2,29.94,SE,132,0.0,1.0,90,0.00,,,0.00,meteohub,2013-02-20 16:14:00,
2013-02-20 08:19:00,38.1,33.8,29.94,SE,132,0.0,1.0,84,0.00,,,0.00,meteohub,2013-02-20 16:19:00,
2013-02-20 08:24:00,38.8,34.7,29.94,SE,132,0.0,1.0,85,0.00,,,0.00,meteohub,2013-02-20 16:24:00,
2013-02-20 08:29:00,39.6,34.5,29.94,SE,132,0.0,1.0,82,0.00,,,0.00,meteohub,2013-02-20 16:29:00,
2013-02-20 08:34:00,40.3,34.0,29.94,SE,132,0.0,1.0,78,0.00,,,0.00,meteohub,2013-02-20 16:34:00,
2013-02-20 08:39:00,41.0,35.1,29.95,SE,132,0.0,1.0,79,0.00,,,0.00,meteohub,2013-02-20 16:39:00,
2013-02-20 08:44:00,41.5,34.9,29.95,SE,134,0.0,1.0,77,0.00,,,0.00,meteohub,2013-02-20 16:44:00,
2013-02-20 08:49:00,43.0,35.6,29.95,SE,133,0.0,1.0,75,0.00,,,0.00,meteohub,2013-02-20 16:49:00,
2013-02-20 08:54:00,43.5,35.1,29.94,SE,133,0.0,1.0,72,0.00,,,0.00,meteohub,2013-02-20 16:54:00,
2013-02-20 08:59:00,43.7,35.2,29.94,SSE,168,0.0,1.0,72,0.00,,,0.00,meteohub,2013-02-20 16:59:00,
2013-02-20 09:04:00,43.5,34.7,29.94,NE,54,1.0,1.0,71,0.00,,,0.00,meteohub,2013-02-20 17:04:00,
2013-02-20 09:09:00,43.3,34.2,29.96,ESE,113,0.0,2.0,70,0.00,,,0.00,meteohub,2013-02-20 17:09:00,
2013-02-20 09:14:00,43.2,33.6,29.96,West,273,1.0,2.0,69,0.00,,,0.00,meteohub,2013-02-20 17:14:00,
2013-02-20 09:19:00,43.2,34.3,29.96,SW,215,0.0,3.0,71,0.00,,,0.00,meteohub,2013-02-20 17:19:00,
2013-02-20 09:24:00,43.5,35.1,29.95,WSW,242,1.0,3.0,72,0.00,,,0.00,meteohub,2013-02-20 17:24:00,
2013-02-20 09:29:00,44.2,35.8,29.95,SSW,200,3.0,3.0,72,0.00,,,0.00,meteohub,2013-02-20 17:29:00,
2013-02-20 09:34:00,44.6,35.4,29.95,SW,221,1.0,3.0,70,0.00,,,0.00,meteohub,2013-02-20 17:34:00,
2013-02-20 09:39:00,44.8,35.2,29.96,West,259,0.0,3.0,69,0.00,,,0.00,meteohub,2013-02-20 17:39:00,
2013-02-20 09:44:00,45.5,35.6,29.96,WSW,240,4.0,4.0,68,0.00,,,0.00,meteohub,2013-02-20 17:44:00,
2013-02-20 09:49:00,46.0,34.5,29.96,WSW,254,4.0,6.0,64,0.00,,,0.00,meteohub,2013-02-20 17:49:00,
2013-02-20 09:54:00,46.4,35.2,29.96,West,265,2.0,6.0,65,0.00,,,0.00,meteohub,2013-02-20 17:54:00,
2013-02-20 09:59:00,46.9,35.4,29.96,WSW,246,2.0,6.0,64,0.00,,,0.00,meteohub,2013-02-20 17:59:00,
2013-02-20 10:04:00,46.9,35.1,29.96,SW,226,0.0,6.0,63,0.00,,,0.00,meteohub,2013-02-20 18:04:00,
2013-02-20 10:09:00,47.5,34.7,29.96,NNW,336,4.0,9.0,61,0.00,,,0.00,meteohub,2013-02-20 18:09:00,
2013-02-20 10:14:00,47.8,35.4,29.96,WNW,294,3.0,9.0,62,0.00,,,0.00,meteohub,2013-02-20 18:14:00,
2013-02-20 10:19:00,48.4,35.6,29.96,West,277,4.0,8.0,61,0.00,,,0.00,meteohub,2013-02-20 18:19:00,
2013-02-20 10:24:00,48.7,35.1,29.96,West,281,4.0,8.0,59,0.00,,,0.00,meteohub,2013-02-20 18:24:00,
2013-02-20 10:29:00,48.9,34.9,29.96,NW,311,2.0,9.0,58,0.00,,,0.00,meteohub,2013-02-20 18:29:00,
2013-02-20 10:35:00,49.6,35.4,29.96,West,279,2.0,9.0,58,0.00,,,0.00,meteohub,2013-02-20 18:35:00,
2013-02-20 10:40:00,49.8,35.6,29.96,West,261,3.0,7.0,58,0.00,,,0.00,meteohub,2013-02-20 18:40:00,
2013-02-20 10:45:00,49.8,34.7,29.96,West,260,4.0,7.0,56,0.00,,,0.00,meteohub,2013-02-20 18:45:00,
2013-02-20 10:50:00,50.2,35.1,29.96,WSW,253,0.0,7.0,56,0.00,,,0.00,meteohub,2013-02-20 18:50:00,
2013-02-20 10:55:00,50.7,35.1,29.96,NNW,346,1.0,7.0,55,0.00,,,0.00,meteohub,2013-02-20 18:55:00,
2013-02-20 11:00:00,51.3,35.6,29.96,NW,325,3.0,7.0,55,0.00,,,0.00,meteohub,2013-02-20 19:00:00,
2013-02-20 11:05:00,51.3,35.6,29.96,WNW,283,2.0,6.0,55,0.00,,,0.00,meteohub,2013-02-20 19:05:00,
2013-02-20 11:10:00,51.6,35.1,29.96,WNW,287,2.0,6.0,53,0.00,,,0.00,meteohub,2013-02-20 19:10:00,
2013-02-20 11:15:00,52.2,36.0,29.96,West,272,2.0,6.0,54,0.00,,,0.00,meteohub,2013-02-20 19:15:00,
2013-02-20 11:20:00,52.3,35.2,29.96,NW,307,1.0,9.0,52,0.00,,,0.00,meteohub,2013-02-20 19:20:00,
2013-02-20 11:25:00,52.5,35.4,29.96,WNW,300,4.0,9.0,52,0.00,,,0.00,meteohub,2013-02-20 19:25:00,
2013-02-20 11:30:00,53.1,35.4,29.96,NE,50,2.0,7.0,51,0.00,,,0.00,meteohub,2013-02-20 19:30:00,
2013-02-20 11:35:00,53.6,36.0,29.95,West,280,3.0,5.0,51,0.00,,,0.00,meteohub,2013-02-20 19:35:00,
2013-02-20 11:40:00,53.4,35.2,29.95,WSW,245,2.0,7.0,50,0.00,,,0.00,meteohub,2013-02-20 19:40:00,
2013-02-20 11:45:00,53.4,35.8,29.95,West,273,2.0,9.0,51,0.00,,,0.00,meteohub,2013-02-20 19:45:00,
2013-02-20 11:50:00,53.6,35.4,29.96,West,261,6.0,9.0,50,0.00,,,0.00,meteohub,2013-02-20 19:50:00,
2013-02-20 11:55:00,54.1,36.0,29.96,WSW,245,4.0,9.0,50,0.00,,,0.00,meteohub,2013-02-20 19:55:00,
2013-02-20 12:00:00,54.9,36.1,29.96,West,277,4.0,7.0,49,0.00,,,0.00,meteohub,2013-02-20 20:00:00,
2013-02-20 12:05:00,54.9,36.5,29.95,WNW,283,5.0,11.0,50,0.00,,,0.00,meteohub,2013-02-20 20:05:00,
2013-02-20 12:10:00,55.2,36.0,29.95,NW,310,3.0,11.0,48,0.00,,,0.00,meteohub,2013-02-20 20:10:00,
2013-02-20 12:15:00,55.0,35.2,29.95,WNW,294,3.0,11.0,47,0.00,,,0.00,meteohub,2013-02-20 20:15:00,
2013-02-20 12:20:00,55.2,36.0,29.95,WNW,284,10.0,10.0,48,0.00,,,0.00,meteohub,2013-02-20 20:20:00,
2013-02-20 12:25:00,55.6,35.6,29.95,West,277,3.0,10.0,47,0.00,,,0.00,meteohub,2013-02-20 20:25:00,
2013-02-20 12:30:00,55.9,36.0,29.95,West,277,6.0,10.0,47,0.00,,,0.00,meteohub,2013-02-20 20:30:00,
2013-02-20 12:35:00,56.5,36.5,29.94,West,267,3.0,10.0,47,0.00,,,0.00,meteohub,2013-02-20 20:35:00,
2013-02-20 12:40:00,56.8,36.9,29.94,WNW,284,9.0,10.0,47,0.00,,,0.00,meteohub,2013-02-20 20:40:00,
2013-02-20 12:45:00,56.7,36.7,29.94,WSW,245,6.0,12.0,47,0.00,,,0.00,meteohub,2013-02-20 20:45:00,
2013-02-20 12:50:00,57.0,36.5,29.94,WNW,284,4.0,12.0,46,0.00,,,0.00,meteohub,2013-02-20 20:50:00,
2013-02-20 12:56:00,56.7,36.7,29.94,WNW,284,5.0,12.0,47,0.00,,,0.00,meteohub,2013-02-20 20:56:00,
2013-02-20 13:01:00,56.8,36.9,29.94,WSW,240,1.0,10.0,47,0.00,,,0.00,meteohub,2013-02-20 21:01:00,
2013-02-20 13:06:00,56.8,36.9,29.93,WNW,288,4.0,12.0,47,0.00,,,0.00,meteohub,2013-02-20 21:06:00,
2013-02-20 13:11:00,57.2,36.7,29.93,WNW,290,3.0,12.0,46,0.00,,,0.00,meteohub,2013-02-20 21:11:00,
2013-02-20 13:16:00,57.4,37.4,29.93,WSW,257,5.0,12.0,47,0.00,,,0.00,meteohub,2013-02-20 21:16:00,
2013-02-20 13:21:00,57.0,36.5,29.93,NW,315,4.0,11.0,46,0.00,,,0.00,meteohub,2013-02-20 21:21:00,
2013-02-20 13:26:00,57.0,37.0,29.93,NW,319,5.0,11.0,47,0.00,,,0.00,meteohub,2013-02-20 21:26:00,
2013-02-20 13:31:00,57.6,36.9,29.93,WSW,254,2.0,13.0,46,0.00,,,0.00,meteohub,2013-02-20 21:31:00,
2013-02-20 13:36:00,58.3,37.0,29.91,NW,315,4.0,13.0,45,0.00,,,0.00,meteohub,2013-02-20 21:36:00,
2013-02-20 13:41:00,58.1,36.9,29.91,NW,307,6.0,13.0,45,0.00,,,0.00,meteohub,2013-02-20 21:41:00,
2013-02-20 13:46:00,58.5,36.7,29.91,WNW,283,7.0,11.0,44,0.00,,,0.00,meteohub,2013-02-20 21:46:00,
2013-02-20 13:51:00,58.3,36.5,29.91,West,267,10.0,11.0,44,0.00,,,0.00,meteohub,2013-02-20 21:51:00,
2013-02-20 13:56:00,58.1,35.8,29.91,SW,223,2.0,13.0,43,0.00,,,0.00,meteohub,2013-02-20 21:56:00,
2013-02-20 14:01:00,58.5,36.7,29.91,WNW,302,9.0,15.0,44,0.00,,,0.00,meteohub,2013-02-20 22:01:00,
2013-02-20 14:06:00,58.5,36.7,29.91,West,281,10.0,15.0,44,0.00,,,0.00,meteohub,2013-02-20 22:06:00,
2013-02-20 14:11:00,58.3,36.0,29.91,West,277,3.0,13.0,43,0.00,,,0.00,meteohub,2013-02-20 22:11:00,
2013-02-20 14:16:00,58.8,37.0,29.91,NW,312,5.0,14.0,44,0.00,,,0.00,meteohub,2013-02-20 22:16:00,
2013-02-20 14:21:00,58.5,36.7,29.91,West,269,4.0,14.0,44,0.00,,,0.00,meteohub,2013-02-20 22:21:00,
2013-02-20 14:26:00,58.3,36.5,29.91,West,277,8.0,14.0,44,0.00,,,0.00,meteohub,2013-02-20 22:26:00,
2013-02-20 14:31:00,58.3,36.5,29.91,WNW,286,11.0,16.0,44,0.00,,,0.00,meteohub,2013-02-20 22:31:00,
2013-02-20 14:36:00,58.5,36.7,29.91,West,275,9.0,16.0,44,0.00,,,0.00,meteohub,2013-02-20 22:36:00,
2013-02-20 14:41:00,58.5,36.7,29.91,West,280,5.0,16.0,44,0.00,,,0.00,meteohub,2013-02-20 22:41:00,
2013-02-20 14:46:00,58.6,36.9,29.91,West,268,6.0,12.0,44,0.00,,,0.00,meteohub,2013-02-20 22:46:00,
2013-02-20 14:51:00,58.6,36.1,29.91,WNW,291,3.0,12.0,43,0.00,,,0.00,meteohub,2013-02-20 22:51:00,
2013-02-20 14:56:00,59.2,36.1,29.91,NW,317,6.0,15.0,42,0.00,,,0.00,meteohub,2013-02-20 22:56:00,
2013-02-20 15:01:00,59.2,35.4,29.91,WNW,299,3.0,15.0,41,0.00,,,0.00,meteohub,2013-02-20 23:01:00,
2013-02-20 15:06:00,59.2,34.9,29.91,WNW,302,6.0,11.0,40,0.00,,,0.00,meteohub,2013-02-20 23:06:00,
2013-02-20 15:11:00,59.4,35.1,29.91,West,275,6.0,11.0,40,0.00,,,0.00,meteohub,2013-02-20 23:11:00,
2013-02-20 15:16:00,59.7,34.0,29.91,SW,234,5.0,13.0,38,0.00,,,0.00,meteohub,2013-02-20 23:16:00,
2013-02-20 15:22:00,59.7,32.7,29.91,WNW,287,4.0,13.0,36,0.00,,,0.00,meteohub,2013-02-20 23:22:00,
2013-02-20 15:27:00,59.4,33.8,29.91,WNW,298,3.0,12.0,38,0.00,,,0.00,meteohub,2013-02-20 23:27:00,
2013-02-20 15:32:00,59.5,33.3,29.91,West,271,3.0,12.0,37,0.00,,,0.00,meteohub,2013-02-20 23:32:00,
2013-02-20 15:37:00,59.4,33.8,29.91,WNW,285,10.0,13.0,38,0.00,,,0.00,meteohub,2013-02-20 23:37:00,
2013-02-20 15:42:00,59.2,33.6,29.91,WNW,285,5.0,14.0,38,0.00,,,0.00,meteohub,2013-02-20 23:42:00,
2013-02-20 15:47:00,59.0,34.2,29.91,West,281,9.0,14.0,39,0.00,,,0.00,meteohub,2013-02-20 23:47:00,
2013-02-20 15:52:00,59.0,34.2,29.91,WSW,253,4.0,16.0,39,0.00,,,0.00,meteohub,2013-02-20 23:52:00,
2013-02-20 15:57:00,59.2,34.9,29.91,West,263,3.0,16.0,40,0.00,,,0.00,meteohub,2013-02-20 23:57:00,
2013-02-20 16:02:00,59.4,34.3,29.91,West,272,5.0,16.0,39,0.00,,,0.00,meteohub,2013-02-21 00:02:00,
2013-02-20 16:07:00,59.4,35.1,29.91,NW,319,10.0,12.0,40,0.00,,,0.00,meteohub,2013-02-21 00:07:00,
2013-02-20 16:12:00,59.4,35.6,29.91,West,261,4.0,11.0,41,0.00,,,0.00,meteohub,2013-02-21 00:12:00,
2013-02-20 16:17:00,59.4,35.6,29.91,WNW,284,4.0,11.0,41,0.00,,,0.00,meteohub,2013-02-21 00:17:00,
2013-02-20 16:22:00,59.0,35.4,29.91,West,261,9.0,11.0,41,0.00,,,0.00,meteohub,2013-02-21 00:22:00,
2013-02-20 16:27:00,58.6,35.6,29.91,West,279,3.0,13.0,42,0.00,,,0.00,meteohub,2013-02-21 00:27:00,
2013-02-20 16:32:00,58.6,35.6,29.91,NW,306,3.0,13.0,42,0.00,,,0.00,meteohub,2013-02-21 00:32:00,
2013-02-20 16:37:00,58.3,35.2,29.91,West,281,5.0,9.0,42,0.00,,,0.00,meteohub,2013-02-21 00:37:00,
2013-02-20 16:42:00,57.9,35.6,29.91,West,281,3.0,11.0,43,0.00,,,0.00,meteohub,2013-02-21 00:42:00,
2013-02-20 16:47:00,57.6,35.2,29.91,West,281,4.0,11.0,43,0.00,,,0.00,meteohub,2013-02-21 00:47:00,
2013-02-20 16:52:00,57.7,35.4,29.92,WNW,298,3.0,11.0,43,0.00,,,0.00,meteohub,2013-02-21 00:52:00,
2013-02-20 16:57:00,57.9,35.6,29.92,NW,322,3.0,10.0,43,0.00,,,0.00,meteohub,2013-02-21 00:57:00,
2013-02-20 17:02:00,57.7,36.0,29.92,NW,320,4.0,9.0,44,0.00,,,0.00,meteohub,2013-02-21 01:02:00,
2013-02-20 17:07:00,57.6,36.3,29.92,NNW,340,2.0,10.0,45,0.00,,,0.00,meteohub,2013-02-21 01:07:00,
2013-02-20 17:12:00,57.4,36.1,29.92,West,280,6.0,10.0,45,0.00,,,0.00,meteohub,2013-02-21 01:12:00,
2013-02-20 17:17:00,56.8,36.3,29.92,WNW,284,7.0,11.0,46,0.00,,,0.00,meteohub,2013-02-21 01:17:00,
2013-02-20 17:22:00,56.5,36.5,29.93,WNW,283,9.0,13.0,47,0.00,,,0.00,meteohub,2013-02-21 01:22:00,
2013-02-20 17:27:00,56.1,36.7,29.93,WNW,291,4.0,14.0,48,0.00,,,0.00,meteohub,2013-02-21 01:27:00,
2013-02-20 17:32:00,55.8,36.9,29.93,WNW,288,2.0,14.0,49,0.00,,,0.00,meteohub,2013-02-21 01:32:00,
2013-02-20 17:37:00,55.6,37.2,29.93,WNW,283,4.0,14.0,50,0.00,,,0.00,meteohub,2013-02-21 01:37:00,
2013-02-20 17:43:00,55.0,37.2,29.93,West,268,4.0,11.0,51,0.00,,,0.00,meteohub,2013-02-21 01:43:00,
2013-02-20 17:48:00,54.7,37.4,29.93,WSW,251,2.0,8.0,52,0.00,,,0.00,meteohub,2013-02-21 01:48:00,
2013-02-20 17:53:00,54.1,37.4,29.93,NW,304,4.0,8.0,53,0.00,,,0.00,meteohub,2013-02-21 01:53:00,
2013-02-20 17:58:00,53.8,37.9,29.93,WNW,284,2.0,10.0,55,0.00,,,0.00,meteohub,2013-02-21 01:58:00,
2013-02-20 18:03:00,53.2,37.9,29.93,West,259,0.0,10.0,56,0.00,,,0.00,meteohub,2013-02-21 02:03:00,
2013-02-20 18:08:00,52.9,38.1,29.94,NW,307,4.0,10.0,57,0.00,,,0.00,meteohub,2013-02-21 02:08:00,
2013-02-20 18:13:00,52.5,38.1,29.94,West,277,2.0,6.0,58,0.00,,,0.00,meteohub,2013-02-21 02:13:00,
2013-02-20 18:18:00,52.2,37.8,29.94,West,273,1.0,5.0,58,0.00,,,0.00,meteohub,2013-02-21 02:18:00,
2013-02-20 18:23:00,51.8,37.9,29.94,NW,304,1.0,5.0,59,0.00,,,0.00,meteohub,2013-02-21 02:23:00,
2013-02-20 18:28:00,51.6,37.8,29.94,NNE,15,0.0,7.0,59,0.00,,,0.00,meteohub,2013-02-21 02:28:00,
2013-02-20 18:33:00,51.3,37.8,29.94,WSW,248,1.0,4.0,60,0.00,,,0.00,meteohub,2013-02-21 02:33:00,
2013-02-20 18:38:00,50.7,37.8,29.95,NE,48,1.0,3.0,61,0.00,,,0.00,meteohub,2013-02-21 02:38:00,
2013-02-20 18:43:00,50.5,37.9,29.95,NE,49,1.0,3.0,62,0.00,,,0.00,meteohub,2013-02-21 02:43:00,
2013-02-20 18:48:00,50.4,38.3,29.95,WNW,284,1.0,3.0,63,0.00,,,0.00,meteohub,2013-02-21 02:48:00,
2013-02-20 18:53:00,50.2,37.6,29.96,NW,317,0.0,1.0,62,0.00,,,0.00,meteohub,2013-02-21 02:53:00,
2013-02-20 18:58:00,50.0,37.9,29.96,West,275,2.0,3.0,63,0.00,,,0.00,meteohub,2013-02-21 02:58:00,
2013-02-20 19:03:00,49.8,37.8,29.96,NW,308,3.0,3.0,63,0.00,,,0.00,meteohub,2013-02-21 03:03:00,
2013-02-20 19:08:00,49.8,37.8,29.98,WNW,290,5.0,7.0,63,0.00,,,0.00,meteohub,2013-02-21 03:08:00,
2013-02-20 19:13:00,49.6,37.6,29.98,West,265,1.0,7.0,63,0.00,,,0.00,meteohub,2013-02-21 03:13:00,
2013-02-20 19:18:00,49.5,37.8,29.98,West,280,1.0,7.0,64,0.00,,,0.00,meteohub,2013-02-21 03:18:00,
2013-02-20 19:23:00,49.5,37.4,29.98,NW,319,2.0,6.0,63,0.00,,,0.00,meteohub,2013-02-21 03:23:00,
2013-02-20 19:28:00,49.3,37.6,29.98,West,281,1.0,6.0,64,0.00,,,0.00,meteohub,2013-02-21 03:28:00,
2013-02-20 19:34:00,49.3,37.6,29.98,West,270,3.0,6.0,64,0.00,,,0.00,meteohub,2013-02-21 03:34:00,
2013-02-20 19:39:00,48.9,37.2,29.99,WSW,241,1.0,6.0,64,0.00,,,0.00,meteohub,2013-02-21 03:39:00,
2013-02-20 19:44:00,48.7,37.6,29.99,West,281,3.0,6.0,65,0.00,,,0.00,meteohub,2013-02-21 03:44:00,
2013-02-20 19:49:00,48.7,37.6,29.99,West,269,0.0,6.0,65,0.00,,,0.00,meteohub,2013-02-21 03:49:00,
2013-02-20 19:54:00,48.6,37.4,29.98,WNW,284,1.0,5.0,65,0.00,,,0.00,meteohub,2013-02-21 03:54:00,
2013-02-20 19:59:00,48.0,37.6,29.98,ENE,63,1.0,5.0,67,0.00,,,0.00,meteohub,2013-02-21 03:59:00,
2013-02-20 20:04:00,47.5,37.0,29.98,ENE,73,0.0,5.0,67,0.00,,,0.00,meteohub,2013-02-21 04:04:00,
2013-02-20 20:09:00,47.1,37.0,29.98,ENE,69,0.0,11.0,68,0.00,,,0.00,meteohub,2013-02-21 04:09:00,
2013-02-20 20:14:00,46.8,37.2,29.98,West,281,0.0,10.0,69,0.00,,,0.00,meteohub,2013-02-21 04:14:00,
2013-02-20 20:19:00,46.8,37.2,29.98,NE,46,1.0,10.0,69,0.00,,,0.00,meteohub,2013-02-21 04:19:00,
2013-02-20 20:24:00,47.1,37.4,29.99,NW,309,0.0,9.0,69,0.00,,,0.00,meteohub,2013-02-21 04:24:00,
2013-02-20 20:30:00,47.5,37.4,29.99,WNW,291,1.0,10.0,68,0.00,,,0.00,meteohub,2013-02-21 04:30:00,
2013-02-20 20:35:00,46.9,36.9,29.99,NW,310,0.0,12.0,68,0.00,,,0.00,meteohub,2013-02-21 04:35:00,
2013-02-20 20:40:00,46.6,37.4,29.98,NNW,334,1.0,13.0,70,0.00,,,0.00,meteohub,2013-02-21 04:40:00,
2013-02-20 20:45:00,45.9,37.0,29.98,ENE,73,1.0,13.0,71,0.00,,,0.00,meteohub,2013-02-21 04:45:00,
2013-02-20 20:50:00,45.3,36.9,29.98,ESE,102,0.0,14.0,72,0.00,,,0.00,meteohub,2013-02-21 04:50:00,
2013-02-20 20:55:00,45.0,36.9,29.98,ESE,102,0.0,14.0,73,0.00,,,0.00,meteohub,2013-02-21 04:55:00,
2013-02-20 21:00:00,44.4,37.0,29.98,West,277,1.0,11.0,75,0.00,,,0.00,meteohub,2013-02-21 05:00:00,
2013-02-20 21:01:00,44.2,36.9,29.98,West,275,1.0,11.0,75,0.00,,,0.00,meteohub,2013-02-21 05:01:00,
2013-02-20 21:04:00,43.9,36.5,29.98,West,275,1.0,9.0,75,0.00,,,0.00,meteohub,2013-02-21 05:04:00,
2013-02-20 21:10:00,43.5,36.5,30.00,West,275,0.0,8.0,76,0.00,,,0.00,meteohub,2013-02-21 05:10:00,
2013-02-20 21:15:00,43.3,36.3,30.00,West,276,0.0,8.0,76,0.00,,,0.00,meteohub,2013-02-21 05:15:00,
2013-02-20 21:20:00,43.0,36.3,30.00,West,276,0.0,10.0,77,0.00,,,0.00,meteohub,2013-02-21 05:20:00,
2013-02-20 21:25:00,42.6,36.0,30.00,West,276,0.0,10.0,77,0.00,,,0.00,meteohub,2013-02-21 05:25:00,
2013-02-20 21:30:00,42.3,36.1,30.00,West,276,0.0,10.0,79,0.00,,,0.00,meteohub,2013-02-21 05:30:00,
2013-02-20 21:35:00,42.1,36.3,30.01,West,276,0.0,6.0,80,0.00,,,0.00,meteohub,2013-02-21 05:35:00,
2013-02-20 21:40:00,41.9,36.1,30.01,West,276,0.0,5.0,80,0.00,,,0.00,meteohub,2013-02-21 05:40:00,
2013-02-20 21:45:00,41.5,35.8,30.01,West,275,1.0,7.0,80,0.00,,,0.00,meteohub,2013-02-21 05:45:00,
2013-02-20 21:50:00,41.4,36.0,30.01,South,184,1.0,7.0,81,0.00,,,0.00,meteohub,2013-02-21 05:50:00,
2013-02-20 21:55:00,41.2,35.8,30.01,WNW,295,1.0,4.0,81,0.00,,,0.00,meteohub,2013-02-21 05:55:00,
2013-02-20 22:00:00,41.2,36.1,30.01,WNW,294,0.0,3.0,82,0.00,,,0.00,meteohub,2013-02-21 06:00:00,
2013-02-20 22:05:00,41.2,35.8,30.01,WNW,294,0.0,3.0,81,0.00,,,0.00,meteohub,2013-02-21 06:05:00,
2013-02-20 22:10:00,41.2,35.8,30.01,WNW,294,0.0,1.0,81,0.00,,,0.00,meteohub,2013-02-21 06:10:00,
2013-02-20 22:15:00,40.8,35.4,30.01,NW,323,1.0,3.0,81,0.00,,,0.00,meteohub,2013-02-21 06:15:00,
2013-02-20 22:20:00,40.6,35.6,30.01,NNW,338,1.0,3.0,82,0.00,,,0.00,meteohub,2013-02-21 06:20:00,
2013-02-20 22:25:00,40.6,35.6,30.01,NNW,338,0.0,3.0,82,0.00,,,0.00,meteohub,2013-02-21 06:25:00,
2013-02-20 22:31:00,40.3,35.6,30.01,NNW,338,1.0,7.0,83,0.00,,,0.00,meteohub,2013-02-21 06:31:00,
2013-02-20 22:36:00,39.9,35.4,30.00,WNW,290,0.0,7.0,84,0.00,,,0.00,meteohub,2013-02-21 06:36:00,
2013-02-20 22:41:00,39.6,35.1,30.00,WNW,290,0.0,5.0,84,0.00,,,0.00,meteohub,2013-02-21 06:41:00,
2013-02-20 22:46:00,39.4,35.2,30.00,WNW,290,1.0,6.0,85,0.00,,,0.00,meteohub,2013-02-21 06:46:00,
2013-02-20 22:51:00,39.4,35.2,30.01,WNW,290,1.0,6.0,85,0.00,,,0.00,meteohub,2013-02-21 06:51:00,
2013-02-20 22:56:00,39.0,34.5,30.01,West,279,0.0,6.0,84,0.00,,,0.00,meteohub,2013-02-21 06:56:00,
2013-02-20 23:01:00,38.7,34.5,30.01,West,280,0.0,6.0,85,0.00,,,0.00,meteohub,2013-02-21 07:01:00,
2013-02-20 23:06:00,38.5,34.3,30.01,West,280,0.0,6.0,85,0.00,,,0.00,meteohub,2013-02-21 07:06:00,
2013-02-20 23:11:00,38.5,34.7,30.01,West,279,0.0,6.0,86,0.00,,,0.00,meteohub,2013-02-21 07:11:00,
2013-02-20 23:16:00,38.3,34.5,30.01,West,280,0.0,5.0,86,0.00,,,0.00,meteohub,2013-02-21 07:16:00,
2013-02-20 23:23:00,38.1,34.3,30.01,West,280,0.0,5.0,86,0.00,,,0.00,meteohub,2013-02-21 07:23:00,
2013-02-20 23:28:00,37.9,34.3,30.01,West,280,0.0,6.0,87,0.00,,,0.00,meteohub,2013-02-21 07:28:00,
2013-02-20 23:33:00,37.8,34.2,30.01,West,280,0.0,6.0,87,0.00,,,0.00,meteohub,2013-02-21 07:33:00,
2013-02-20 23:38:00,37.6,34.3,30.01,West,279,0.0,6.0,88,0.00,,,0.00,meteohub,2013-02-21 07:38:00,
2013-02-20 23:43:00,37.4,34.2,30.01,West,280,0.0,6.0,88,0.00,,,0.00,meteohub,2013-02-21 07:43:00,
2013-02-20 23:48:00,37.2,34.0,30.01,West,272,0.0,5.0,88,0.00,,,0.00,meteohub,2013-02-21 07:48:00,
2013-02-20 23:53:00,37.2,34.0,30.01,SW,223,2.0,5.0,88,0.00,,,0.00,meteohub,2013-02-21 07:53:00,
2013-02-20 23:58:00,37.2,34.3,30.01,East,88,0.0,5.0,89,0.00,,,0.00,meteohub,2013-02-21 07:58:00,